Regional Weather Roundup
Issued by NWS Cleveland, OH

Home | Current Version | Previous Version | Text Only | Print | Product List | Glossary Off
Versions: 1 2 3 4 5 6 7 8 9 10 11 12 13 14 15 16 17 18 19 20 21 22 23 24 25 26 27 28 29 30 31 32 33 34 35 36 37 38 39 40 41 42 43 44 45 46 47 48 49 50

000
ASUS41 KCLE 230810
RWRCLE
OHIO REGIONAL WEATHER ROUNDUP
NATIONAL WEATHER SERVICE CLEVELAND, OH
400 AM EDT MON OCT 23 2017

NOTE: "FAIR" INDICATES FEW OR NO CLOUDS BELOW 12,000 FEET WITH NO
SIGNIFICANT WEATHER AND/OR OBSTRUCTIONS TO VISIBILITY.

OHZ001>008-015>018-024>027-034-035-043-044-230900-
   NORTHWEST OHIO

CITY           SKY/WX    TMP DP  RH WIND       PRES   REMARKS
DEFIANCE       CLOUDY    65  48  54 SE5       29.94F
FINDLAY        MOCLDY    64  48  56 SE10      29.97F
TOLEDO EXPRESS MOCLDY    63  51  65 VRB3      29.96F
TOLEDO EXEC    CLOUDY    63  51  65 SE8       29.97F
LIMA           CLOUDY    65  50  58 SE13      29.97F
$$

OHZ009>014-019>023-028>033-038-089-230900-
   NORTHEAST OHIO

CITY           SKY/WX    TMP DP  RH WIND       PRES   REMARKS
CLE-HOPKINS    CLOUDY    66  50  56 S13       30.06F
CLE-LAKEFRONT  CLOUDY    65  49  56 S16G22    30.03F
CUY CO. ARPT   NOT AVBL
LORAIN-ELYRIA  NOT AVBL
ASHTABULA      CLOUDY    62  50  64 S7        30.10S
AKRON-CANTON   CLOUDY    62  49  62 S9        30.08F
WOOSTER        CLOUDY    61  50  67 S7        30.07F
MANSFIELD      MOCLDY    63  49  60 SE13      30.04F
YOUNGSTOWN     MOCLDY    59  50  72 SE9       30.10F
$$

OHZ042-051>053-060>062-070>072-077>081-230900-
  SOUTHWEST OHIO

CITY           SKY/WX    TMP DP  RH WIND       PRES   REMARKS
CINC-COVINGTON CLOUDY    66  54  65 SE12      29.95F
CINC-LUNKEN    CLOUDY    66  54  65 S5        29.97F
HAMILTON       MOCLDY    65  53  65 VRB3      29.96F
DAYTON         CLOUDY    65  52  62 SE14      29.98F
WRIGHT-PAT AFB CLOUDY    65  50  58 SE10      29.97F
DAYTON GENERAL CLOUDY    66  51  58 SE8       29.97F
WILMINGTON     MOCLDY    63  53  70 SE7       29.99F
$$

OHZ036-037-039>041-045>050-054>059-063>069-073>076-082>088-230900-
  CENTRAL AND SOUTHEAST OHIO

CITY           SKY/WX    TMP DP  RH WIND       PRES   REMARKS
COLUMBUS       CLOUDY    64  52  64 SE9       30.02F
OSU AIRPORT    CLOUDY    64  52  64 SE10      30.01F
BOLTON FIELD   NOT AVBL
RICKENBACK AFB CLOUDY    62  51  69 SE7       30.01F
NEWARK         MOCLDY    63  48  58 SE3       30.04F
MARION         CLOUDY    64  49  57 S12       30.01F
LANCASTER      CLOUDY    60  51  72 SE8       30.03F
ZANESVILLE     MOCLDY    62  50  64 SE7       30.06F
NEW PHILLY     NOT AVBL
$$




USA.gov is the U.S. government's official web portal to all federal, state and local government web resources and services.